Regional Weather Roundup
Issued by NWS

Home | Current Version | Previous Version | Text Only | Print | Product List | Glossary Off
Versions: 1 2 3 4 5 6 7 8 9 10 11 12 13 14 15 16 17 18 19 20 21 22 23 24 25 26 27 28 29 30 31 32 33 34 35 36 37 38 39 40 41 42 43 44 45 46 47 48 49 50

000
ASUS43 KFSD 021210
RWRSD

WEATHER ROUNDUP FOR SOUTH DAKOTA
NATIONAL WEATHER SERVICE SIOUX FALLS SD
700 AM CDT SUN AUG 02 2015

NOTE: "FAIR" INDICATES FEW OR NO CLOUDS BELOW 12,000 FEET WITH NO
SIGNIFICANT WEATHER AND/OR OBSTRUCTIONS TO VISIBILITY.


SDZ001>005-009-010-012>017-021300-
NORTHWEST AND NORTH CENTRAL SOUTH DAKOTA

CITY           SKY/WX    TMP DP  RH WIND       PRES   REMARKS
BUFFALO          N/A     60  50  69 N13       29.91R
FAITH            N/A     59  49  69 N13       29.90R
MOBRIDGE       CLEAR     68  59  73 N14G23    29.79R
$$

SDZ012>016-024>037-041>051-057-063-072>074-021300-
SOUTHWEST AND SOUTH CENTRAL SOUTH DAKOTA

CITY           SKY/WX    TMP DP  RH WIND       PRES   REMARKS
RAPID CTY ARPT CLEAR     64  52  64 N12       29.92R
PIERRE         CLEAR     67  61  81 W10       29.78R
CUSTER         CLEAR     61  51  70 NW3       30.10R
ELLSWORTH AFB  CLEAR     75  39  27 N15       29.92R
PHILIP         CLEAR     65  60  84 W9        29.85R
PINE RIDGE     CLEAR     55  52  89 S5        29.94R
WINNER         FAIR      73  56  54 SW8       29.80F
$$

SDZ004>011-016>023-039-040-021300-
NORTHEAST SOUTH DAKOTA

CITY           SKY/WX    TMP DP  RH WIND       PRES   REMARKS
ABERDEEN       CLEAR     67  56  67 NW16      29.73R
WATERTOWN      CLEAR     67  61  81 W12       29.72S
BROOKINGS      CLEAR     63  57  82 S6        29.76F
SISSETON         N/A     69  56  62 NW13      29.65R
$$

SDZ017-020-022-023-036>040-048>070-021300-
SOUTHEAST SOUTH DAKOTA

CITY           SKY/WX    TMP DP  RH WIND       PRES   REMARKS
SIOUX FALLS    PTCLDY    64  60  87 SW6       29.77R
HURON          PTCLDY    64  60  87 SW6       29.73F
CHAMBERLAIN    CLEAR     64  61  88 NW5       29.79F
MITCHELL       CLEAR     62  59  90 NW3       29.77R
YANKTON        CLEAR     64  61  88 CALM      29.77R
$$

ABBREVIATIONS USED IN REMARKS
   TC - TEMPERATURE IN CELSIUS
  WCI - WIND CHILL INDEX
   HX - HEAT INDEX
  VSB - VISIBILITY




USA.gov is the U.S. government's official web portal to all federal, state and local government web resources and services.